Location: Theydon Bois
(51.6750°N, 0.1050°E)
Time: 09:48:37
(UTC+01:00)

ISS - Visible Passes

Search period start: 23 May 2017 00:00
Search period end: 02 June 2017 00:00
Orbit: 402 x 409 km, 51.6° (Epoch: 23 May)

Date Brightness Start Highest point End Pass type
(mag) Time Alt. Az. Time Alt. Az. Time Alt. Az.
23 May -3.8 00:15:13 55° S 00:15:21 55° SSE 00:18:35 10° E visible
23 May -3.9 01:48:29 10° W 01:51:48 88° N 01:55:06 10° E visible
23 May -3.8 03:25:01 10° W 03:28:15 54° SSW 03:31:28 10° ESE visible
23 May -1.7 21:47:14 10° SE 21:47:35 10° SE 21:47:56 10° SE visible
23 May -3.4 23:20:17 10° SW 23:23:24 40° SSE 23:26:31 10° E visible
24 May -3.9 00:56:26 10° W 00:59:45 88° S 01:03:04 10° E visible
24 May -4.0 02:32:58 10° W 02:36:15 71° SSW 02:39:31 10° ESE visible
24 May -2.6 04:09:43 10° W 04:12:25 23° SSW 04:15:05 10° SSE visible
24 May -2.9 22:28:37 10° SSW 22:31:29 28° SSE 22:34:22 10° E visible
25 May -4.0 00:04:25 10° WSW 00:07:43 78° SSE 00:11:00 10° E visible
25 May -4.0 01:40:55 10° W 01:44:13 85° S 01:47:30 10° E visible
25 May -3.2 03:17:30 10° W 03:20:31 34° SSW 03:23:32 10° SE visible
25 May -3.9 23:12:25 10° WSW 23:15:41 62° SSE 23:18:57 10° E visible
26 May -3.9 00:48:51 10° W 00:52:10 89° NNE 00:55:27 10° E visible
26 May -3.7 02:25:22 10° W 02:28:34 48° SSW 02:31:45 10° SE visible
26 May -2.0 04:02:51 10° WSW 04:04:29 13° SW 04:06:07 10° S visible
26 May -3.5 22:20:30 10° SW 22:23:41 45° SSE 22:26:52 10° E visible
26 May -3.9 23:56:46 10° W 00:00:05 89° NNE 00:03:23 10° E visible
27 May -3.9 01:33:16 10° W 01:36:33 65° SSW 01:39:49 10° ESE visible
27 May -2.5 03:10:09 10° W 03:12:39 20° SW 03:15:08 10° SSE visible
27 May -3.9 23:04:41 10° WSW 23:08:00 83° SSE 23:11:17 10° E visible
28 May -4.0 00:41:12 10° W 00:44:30 80° S 00:47:20 13° ESE visible
28 May -2.6 02:17:49 10° W 02:19:52 25° WSW 02:19:52 25° WSW visible
28 May -3.9 22:12:38 10° WSW 22:15:55 68° SSE 22:19:12 10° E visible
28 May -3.9 23:49:05 10° W 23:52:24 90° SSW 23:55:42 10° E visible
29 May -3.4 01:25:37 10° W 01:28:29 41° SW 01:28:29 41° SW visible
29 May -3.8 22:56:58 10° W 23:00:17 88° N 23:03:35 10° E visible
30 May -3.8 00:33:29 10° W 00:36:44 59° SSW 00:37:34 42° SE visible
30 May -3.8 22:04:50 10° W 22:08:10 86° SSE 22:11:27 10° E visible
30 May -3.9 23:41:21 10° W 23:44:39 75° SSW 23:46:51 19° ESE visible
31 May -2.0 01:18:03 10° W 01:19:28 19° WSW 01:19:28 19° WSW visible
31 May -3.9 22:49:13 10° W 22:52:31 87° S 22:55:50 10° E visible
01 Jun -3.2 00:25:46 10° W 00:28:50 37° SSW 00:28:50 37° SSW visible
01 Jun -3.8 21:57:03 10° W 22:00:22 88° N 22:03:41 10° E visible
01 Jun -3.7 23:33:34 10° W 23:36:48 52° SSW 23:38:15 28° SE visible
